This is the latest recevied weather packets stored in our database for station/object EA4NI-10. If no packets are shown the sender has not sent any weather packets the latest 10 day(s).
| Time | Temp. | Humidity | Pressure | Rain* | Wind** | Luminosity | Snow |
|---|---|---|---|---|---|---|---|
| 1778200017 | 21.67° C | 48% | 1015.1 hPa | - | - | - | - |
| 1778199117 | 21.67° C | 48% | 1015.2 hPa | - | - | - | - |
| 1778198216 | 21.67° C | 48% | 1015.3 hPa | - | - | - | - |
| 1778197388 | 21.67° C | 48% | 1015.5 hPa | - | - | - | - |
| 1778197316 | 21.67° C | 48% | 1015.5 hPa | - | - | - | - |
| 1778196415 | 21.67° C | 48% | 1015.4 hPa | - | - | - | - |
| 1778195515 | 21.67° C | 48% | 1015.6 hPa | - | - | - | - |
| 1778194615 | 21.67° C | 48% | 1015.7 hPa | - | - | - | - |
| 1778193715 | 21.67° C | 48% | 1015.9 hPa | - | - | - | - |
| 1778192814 | 21.67° C | 48% | 1015.9 hPa | - | - | - | - |
| 1778191940 | 21.67° C | 48% | 1015.8 hPa | - | - | - | - |
| 1778191039 | 21.67° C | 48% | 1015.8 hPa | - | - | - | - |
| 1778190138 | 21.67° C | 49% | 1015.7 hPa | - | - | - | - |
| 1778189237 | 21.67° C | 48% | 1015.8 hPa | - | - | - | - |
| 1778188337 | 21.67° C | 48% | 1015.7 hPa | - | - | - | - |
| 1778187437 | 21.67° C | 49% | 1015.5 hPa | - | - | - | - |
| 1778186537 | 21.67° C | 49% | 1015.3 hPa | - | - | - | - |
| 1778185637 | 21.67° C | 50% | 1015 hPa | - | - | - | - |
| 1778184737 | 21.67° C | 50% | 1014.8 hPa | - | - | - | - |
| 1778183837 | 21.67° C | 52% | 1014.6 hPa | - | - | - | - |
| 1778182937 | 21.67° C | 49% | 1014.4 hPa | - | - | - | - |
| 1778182037 | 21.67° C | 47% | 1014.2 hPa | - | - | - | - |
| 1778181136 | 21.67° C | 47% | 1014.2 hPa | - | - | - | - |
| 1778180236 | 21.67° C | 46% | 1014 hPa | - | - | - | - |
| 1778179336 | 21.67° C | 46% | 1013.6 hPa | - | - | - | - |
* Rain since midnight (hover to see other rain measurements)
** Current wind speed in m/s (hover to see current wind gust speed)